Satellite-Ground Cal/Val Region Overpasses Predictions

Prediction of Satellite NPP Overpassing Cal/Val Region: PacNW

Region Location: (Latitude: 10.00, Longitude: 139.50) to (Latitude: 22.70, Longitude: 165.60).

Table of predicted overpasses for the next 14.0 days since TLE Epoch: 12/6/2012
Interval Starting Time Starting Location Ending Time Ending Location
1 12/06/2012 16:12:38 ( 22.67, 141.27) 12/06/2012 16:14:42 ( 15.39, 139.50)
2 12/07/2012 03:21:42 ( 10.04, 148.79) 12/07/2012 03:25:17 ( 22.66, 145.79)
3 12/07/2012 15:53:35 ( 22.69, 146.03) 12/07/2012 15:57:11 ( 10.01, 143.02)
4 12/08/2012 03:02:40 ( 10.01, 153.56) 12/08/2012 03:06:16 ( 22.69, 150.54)
5 12/08/2012 15:34:34 ( 22.66, 150.79) 12/08/2012 15:38:09 ( 10.04, 147.78)
6 12/09/2012 02:43:38 ( 10.05, 158.31) 12/09/2012 02:47:13 ( 22.67, 155.30)
7 12/09/2012 15:15:31 ( 22.68, 155.55) 12/09/2012 15:19:07 ( 10.00, 152.53)
8 12/10/2012 02:24:36 ( 10.03, 163.07) 12/10/2012 02:28:11 ( 22.65, 160.07)
9 12/10/2012 14:56:30 ( 22.64, 160.30) 12/10/2012 15:00:05 ( 10.02, 157.30)
10 12/11/2012 02:08:16 ( 19.52, 165.60) 12/11/2012 02:09:10 ( 22.68, 164.82)
11 12/11/2012 03:47:04 ( 10.01, 142.46) 12/11/2012 03:50:36 ( 22.46, 139.50)
12 12/11/2012 14:37:27 ( 22.66, 165.06) 12/11/2012 14:41:02 ( 10.04, 162.06)
13 12/11/2012 16:18:57 ( 22.66, 139.69) 12/11/2012 16:19:09 ( 21.95, 139.51)
14 12/12/2012 03:28:02 ( 10.05, 147.21) 12/12/2012 03:31:37 ( 22.67, 144.21)
15 12/12/2012 15:59:55 ( 22.67, 144.45) 12/12/2012 16:03:30 ( 10.05, 141.45)
16 12/13/2012 03:09:00 ( 10.03, 151.97) 12/13/2012 03:12:35 ( 22.66, 148.97)
17 12/13/2012 15:40:52 ( 22.69, 149.22) 12/13/2012 15:44:28 ( 10.01, 146.20)
18 12/14/2012 02:49:57 ( 10.02, 156.74) 12/14/2012 02:53:33 ( 22.70, 153.72)
19 12/14/2012 15:21:51 ( 22.65, 153.96) 12/14/2012 15:25:26 ( 10.02, 150.96)
20 12/15/2012 02:30:55 ( 10.01, 161.50) 12/15/2012 02:34:31 ( 22.68, 158.48)
21 12/15/2012 15:02:48 ( 22.66, 158.73) 12/15/2012 15:06:23 ( 10.04, 155.72)
22 12/16/2012 02:12:41 ( 12.87, 165.60) 12/16/2012 02:15:28 ( 22.67, 163.24)
23
